Time,TemperatureF,DewpointF,PressureIn,WindDirection,WindDirectionDegrees,WindSpeedMPH,WindSpeedGustMPH,Humidity,HourlyPrecipIn,Conditions,Clouds,dailyrainin,SoftwareType,DateUTC
2013-02-13 00:01:00,28.0,24.0,29.93,West,273,3.0,6.0,83,0.00,,,0.00,,2013-02-13 05:01:00,
2013-02-13 00:12:00,28.0,24.0,29.93,West,259,2.0,5.0,83,0.00,,,0.00,,2013-02-13 05:12:00,
2013-02-13 00:22:00,28.0,24.0,29.93,West,259,2.0,5.0,83,0.00,,,0.00,,2013-02-13 05:22:00,
2013-02-13 00:32:00,28.0,24.0,29.92,WNW,290,2.0,5.0,84,0.00,,,0.00,,2013-02-13 05:32:00,
2013-02-13 00:42:00,28.0,24.0,29.92,WNW,290,2.0,5.0,84,0.00,,,0.00,,2013-02-13 05:42:00,
2013-02-13 00:52:00,28.0,24.0,29.92,West,280,4.0,10.0,83,0.00,,,0.00,,2013-02-13 05:52:00,
2013-02-13 01:02:00,28.0,24.0,29.92,WSW,250,7.0,11.0,83,0.00,,,0.00,,2013-02-13 06:02:00,
2013-02-13 01:11:00,28.0,24.0,29.92,WNW,285,4.0,7.0,84,0.00,,,0.00,,2013-02-13 06:11:00,
2013-02-13 01:21:00,28.0,24.0,29.92,WNW,285,4.0,7.0,84,0.00,,,0.00,,2013-02-13 06:21:00,
2013-02-13 01:32:00,28.0,24.0,29.91,WNW,299,1.0,4.0,85,0.00,,,0.00,,2013-02-13 06:32:00,
2013-02-13 01:42:00,28.0,24.0,29.91,West,260,3.0,7.0,84,0.00,,,0.00,,2013-02-13 06:42:00,
2013-02-13 01:52:00,28.0,24.0,29.91,West,260,3.0,7.0,84,0.00,,,0.00,,2013-02-13 06:52:00,
2013-02-13 02:02:00,28.0,24.0,29.91,WNW,300,1.0,4.0,84,0.00,,,0.00,,2013-02-13 07:02:00,
2013-02-13 02:11:00,28.0,24.0,29.91,NNW,340,2.0,6.0,84,0.00,,,0.00,,2013-02-13 07:11:00,
2013-02-13 02:22:00,28.0,24.0,29.91,NNW,340,2.0,6.0,84,0.00,,,0.00,,2013-02-13 07:22:00,
2013-02-13 02:32:00,28.0,24.0,29.91,SSW,207,3.0,5.0,85,0.00,,,0.00,,2013-02-13 07:32:00,
2013-02-13 02:42:00,28.0,24.0,29.91,SSW,207,3.0,5.0,85,0.00,,,0.00,,2013-02-13 07:42:00,
2013-02-13 02:52:00,27.0,23.0,29.90,West,268,0.0,9.0,84,0.00,,,0.00,,2013-02-13 07:52:00,
2013-02-13 03:01:00,27.0,23.0,29.90,SW,235,1.0,7.0,84,0.00,,,0.00,,2013-02-13 08:01:00,
2013-02-13 03:11:00,27.0,23.0,29.90,SW,235,1.0,7.0,84,0.00,,,0.00,,2013-02-13 08:11:00,
2013-02-13 03:21:00,27.0,23.0,29.90,WSW,245,5.0,7.0,83,0.00,,,0.00,,2013-02-13 08:21:00,
2013-02-13 03:32:00,27.0,23.0,29.89,SW,224,2.0,5.0,83,0.00,,,0.00,,2013-02-13 08:32:00,
2013-02-13 03:43:00,27.0,23.0,29.89,SW,224,2.0,5.0,83,0.00,,,0.00,,2013-02-13 08:43:00,
2013-02-13 03:52:00,27.0,23.0,29.89,West,281,2.0,5.0,84,0.00,,,0.00,,2013-02-13 08:52:00,
2013-02-13 04:02:00,27.0,23.0,29.88,WNW,297,2.0,5.0,83,0.00,,,0.00,,2013-02-13 09:02:00,
2013-02-13 04:11:00,27.0,23.0,29.88,WNW,297,2.0,5.0,83,0.00,,,0.00,,2013-02-13 09:11:00,
2013-02-13 04:21:00,27.0,23.0,29.88,WSW,251,1.0,6.0,83,0.00,,,0.00,,2013-02-13 09:21:00,
2013-02-13 04:31:00,27.0,23.0,29.87,West,277,1.0,2.0,84,0.00,,,0.00,,2013-02-13 09:31:00,
2013-02-13 04:42:00,27.0,23.0,29.86,West,270,2.0,5.0,84,0.00,,,0.00,,2013-02-13 09:42:00,
2013-02-13 04:52:00,27.0,23.0,29.86,West,270,2.0,5.0,84,0.00,,,0.00,,2013-02-13 09:52:00,
2013-02-13 05:01:00,26.0,22.0,29.86,West,270,1.0,2.0,84,0.00,,,0.00,,2013-02-13 10:01:00,
2013-02-13 05:11:00,26.0,22.0,29.85,West,270,0.0,0.0,85,0.00,,,0.00,,2013-02-13 10:11:00,
2013-02-13 05:21:00,26.0,22.0,29.85,West,270,0.0,0.0,85,0.00,,,0.00,,2013-02-13 10:21:00,
2013-02-13 05:32:00,25.0,21.0,29.85,West,270,0.0,1.0,86,0.00,,,0.00,,2013-02-13 10:32:00,
2013-02-13 05:42:00,25.0,22.0,29.85,West,270,0.0,0.0,87,0.00,,,0.00,,2013-02-13 10:42:00,
2013-02-13 05:52:00,25.0,22.0,29.85,West,270,0.0,0.0,87,0.00,,,0.00,,2013-02-13 10:52:00,
2013-02-13 06:01:00,25.0,22.0,29.85,West,270,0.0,0.0,87,0.00,,,0.00,,2013-02-13 11:01:00,
2013-02-13 06:11:00,25.0,22.0,29.85,West,270,0.0,0.0,87,0.00,,,0.00,,2013-02-13 11:11:00,
2013-02-13 06:22:00,24.0,21.0,29.84,West,270,0.0,1.0,88,0.00,,,0.00,,2013-02-13 11:22:00,
2013-02-13 06:32:00,24.0,21.0,29.84,West,270,0.0,2.0,89,0.00,,,0.00,,2013-02-13 11:32:00,
2013-02-13 06:42:00,24.0,22.0,29.83,West,270,0.0,1.0,91,0.00,,,0.00,,2013-02-13 11:42:00,
2013-02-13 06:52:00,24.0,22.0,29.83,West,270,0.0,1.0,91,0.00,,,0.00,,2013-02-13 11:52:00,
2013-02-13 07:02:00,23.0,21.0,29.83,ESE,115,2.0,3.0,91,0.00,,,0.00,,2013-02-13 12:02:00,
2013-02-13 07:11:00,23.0,21.0,29.82,ESE,115,0.0,0.0,91,0.00,,,0.00,,2013-02-13 12:11:00,
2013-02-13 07:22:00,23.0,21.0,29.82,ESE,115,0.0,0.0,91,0.00,,,0.00,,2013-02-13 12:22:00,
2013-02-13 07:32:00,23.0,21.0,29.82,ESE,115,0.0,0.0,91,0.00,,,0.00,,2013-02-13 12:32:00,
2013-02-13 07:42:00,23.0,21.0,29.82,ESE,115,0.0,0.0,92,0.00,,,0.00,,2013-02-13 12:42:00,
2013-02-13 07:52:00,23.0,21.0,29.82,ESE,115,0.0,0.0,92,0.00,,,0.00,,2013-02-13 12:52:00,
2013-02-13 08:02:00,23.0,21.0,29.82,ESE,115,0.0,0.0,93,0.00,,,0.00,,2013-02-13 13:02:00,
2013-02-13 08:11:00,23.0,21.0,29.82,ESE,115,0.0,0.0,92,0.00,,,0.00,,2013-02-13 13:11:00,
2013-02-13 08:21:00,23.0,21.0,29.82,ESE,115,0.0,0.0,92,0.00,,,0.00,,2013-02-13 13:21:00,
2013-02-13 08:32:00,23.0,21.0,29.82,ESE,115,0.0,0.0,93,0.00,,,0.00,,2013-02-13 13:32:00,
2013-02-13 08:42:00,24.0,22.0,29.82,ESE,115,0.0,0.0,93,0.00,,,0.00,,2013-02-13 13:42:00,
2013-02-13 08:52:00,24.0,22.0,29.82,ESE,115,0.0,0.0,93,0.00,,,0.00,,2013-02-13 13:52:00,
2013-02-13 09:01:00,26.0,24.0,29.81,ESE,115,0.0,2.0,92,0.00,,,0.00,,2013-02-13 14:01:00,
2013-02-13 09:11:00,26.0,24.0,29.81,ESE,115,0.0,2.0,92,0.00,,,0.00,,2013-02-13 14:11:00,
2013-02-13 09:21:00,27.0,24.0,29.81,ESE,115,1.0,2.0,88,0.00,,,0.00,,2013-02-13 14:21:00,
2013-02-13 09:32:00,28.0,24.0,29.82,SSW,209,2.0,4.0,86,0.00,,,0.00,,2013-02-13 14:32:00,
2013-02-13 09:42:00,28.0,24.0,29.82,South,185,2.0,5.0,85,0.00,,,0.00,,2013-02-13 14:42:00,
2013-02-13 09:52:00,28.0,24.0,29.82,South,185,2.0,5.0,85,0.00,,,0.00,,2013-02-13 14:52:00,
2013-02-13 10:01:00,29.0,25.0,29.82,SSE,150,3.0,5.0,84,0.00,,,0.00,,2013-02-13 15:01:00,
2013-02-13 10:11:00,29.0,25.0,29.83,WSW,250,4.0,8.0,84,0.00,,,0.00,,2013-02-13 15:11:00,
2013-02-13 10:21:00,29.0,25.0,29.83,WSW,250,4.0,8.0,84,0.00,,,0.00,,2013-02-13 15:21:00,
2013-02-13 10:32:00,30.0,25.0,29.83,South,182,7.0,9.0,82,0.00,,,0.00,,2013-02-13 15:32:00,
2013-02-13 10:42:00,30.0,25.0,29.83,South,182,7.0,9.0,82,0.00,,,0.00,,2013-02-13 15:42:00,
2013-02-13 10:52:00,31.0,26.0,29.83,South,174,4.0,9.0,83,0.00,,,0.00,,2013-02-13 15:52:00,
2013-02-13 11:01:00,32.0,27.0,29.82,SSW,200,2.0,7.0,81,0.00,,,0.00,,2013-02-13 16:01:00,
2013-02-13 11:11:00,32.0,27.0,29.81,SW,215,5.0,7.0,80,0.00,,,0.00,,2013-02-13 16:11:00,
2013-02-13 11:21:00,32.0,27.0,29.81,SW,215,5.0,7.0,80,0.00,,,0.00,,2013-02-13 16:21:00,
2013-02-13 11:32:00,33.0,27.0,29.81,SSE,166,3.0,7.0,78,0.00,,,0.00,,2013-02-13 16:32:00,
2013-02-13 11:42:00,33.0,27.0,29.81,SSE,166,3.0,7.0,78,0.00,,,0.00,,2013-02-13 16:42:00,
2013-02-13 11:52:00,34.0,28.0,29.81,SSW,198,7.0,11.0,77,0.00,,,0.00,,2013-02-13 16:52:00,
2013-02-13 12:01:00,35.0,28.0,29.81,South,170,5.0,7.0,75,0.00,,,0.00,,2013-02-13 17:01:00,
2013-02-13 12:11:00,35.0,28.0,29.81,South,170,5.0,7.0,75,0.00,,,0.00,,2013-02-13 17:11:00,
2013-02-13 12:21:00,36.0,29.0,29.80,SW,215,4.0,9.0,74,0.00,,,0.00,,2013-02-13 17:21:00,
2013-02-13 12:32:00,37.0,27.0,29.79,West,269,7.0,9.0,68,0.00,,,0.00,,2013-02-13 17:32:00,
2013-02-13 12:42:00,37.0,27.0,29.79,West,269,7.0,9.0,68,0.00,,,0.00,,2013-02-13 17:42:00,
2013-02-13 12:52:00,38.0,28.0,29.79,SSW,196,5.0,10.0,67,0.00,,,0.00,,2013-02-13 17:52:00,
2013-02-13 13:02:00,39.0,28.0,29.78,West,262,5.0,10.0,65,0.00,,,0.00,,2013-02-13 18:02:00,
2013-02-13 13:11:00,39.0,28.0,29.77,SSW,207,6.0,9.0,65,0.00,,,0.00,,2013-02-13 18:11:00,
2013-02-13 13:23:00,39.0,28.0,29.77,SSW,207,6.0,9.0,65,0.00,,,0.00,,2013-02-13 18:23:00,
2013-02-13 13:32:00,40.0,28.0,29.76,WSW,240,9.0,12.0,62,0.00,,,0.00,,2013-02-13 18:32:00,
2013-02-13 13:42:00,40.0,28.0,29.76,WSW,240,9.0,12.0,62,0.00,,,0.00,,2013-02-13 18:42:00,
2013-02-13 13:52:00,40.0,28.0,29.75,WSW,240,6.0,9.0,61,0.00,,,0.00,,2013-02-13 18:52:00,
2013-02-13 14:01:00,41.0,28.0,29.75,SW,215,6.0,12.0,60,0.00,,,0.00,,2013-02-13 19:01:00,
2013-02-13 14:11:00,41.0,28.0,29.74,SSW,209,8.0,14.0,60,0.00,,,0.00,,2013-02-13 19:11:00,
2013-02-13 14:21:00,41.0,28.0,29.74,SSW,209,8.0,14.0,60,0.00,,,0.00,,2013-02-13 19:21:00,
2013-02-13 14:32:00,41.0,29.0,29.74,SW,232,8.0,12.0,61,0.00,,,0.00,,2013-02-13 19:32:00,
2013-02-13 14:42:00,41.0,29.0,29.74,SW,232,8.0,12.0,61,0.00,,,0.00,,2013-02-13 19:42:00,
2013-02-13 14:52:00,42.0,30.0,29.73,SSW,207,7.0,15.0,61,0.00,,,0.00,,2013-02-13 19:52:00,
2013-02-13 15:02:00,42.0,30.0,29.72,SSW,211,5.0,12.0,61,0.00,,,0.00,,2013-02-13 20:02:00,
2013-02-13 15:11:00,43.0,30.0,29.72,SSW,205,9.0,14.0,59,0.00,,,0.00,,2013-02-13 20:11:00,
2013-02-13 15:21:00,43.0,30.0,29.72,SSW,205,9.0,14.0,59,0.00,,,0.00,,2013-02-13 20:21:00,
2013-02-13 15:32:00,43.0,30.0,29.72,WSW,238,5.0,11.0,60,0.00,,,0.00,,2013-02-13 20:32:00,
2013-02-13 15:42:00,44.0,31.0,29.72,SW,231,8.0,13.0,60,0.00,,,0.00,,2013-02-13 20:42:00,
2013-02-13 15:52:00,44.0,31.0,29.72,SW,231,8.0,13.0,60,0.00,,,0.00,,2013-02-13 20:52:00,
2013-02-13 16:01:00,43.0,30.0,29.72,SW,233,6.0,11.0,59,0.00,,,0.00,,2013-02-13 21:01:00,
2013-02-13 16:11:00,43.0,30.0,29.72,SW,233,6.0,11.0,59,0.00,,,0.00,,2013-02-13 21:11:00,
2013-02-13 16:21:00,43.0,30.0,29.72,SSW,202,9.0,13.0,61,0.00,,,0.00,,2013-02-13 21:21:00,
2013-02-13 16:31:00,43.0,30.0,29.72,SSW,211,6.0,14.0,60,0.00,,,0.00,,2013-02-13 21:31:00,
2013-02-13 16:42:00,43.0,30.0,29.72,SW,222,8.0,13.0,61,0.00,,,0.00,,2013-02-13 21:42:00,
2013-02-13 16:52:00,43.0,30.0,29.72,SW,222,8.0,13.0,61,0.00,,,0.00,,2013-02-13 21:52:00,
2013-02-13 17:02:00,43.0,31.0,29.72,SW,222,8.0,12.0,62,0.00,,,0.00,,2013-02-13 22:02:00,
2013-02-13 17:11:00,43.0,32.0,29.72,SW,221,6.0,12.0,64,0.00,,,0.00,,2013-02-13 22:11:00,
2013-02-13 17:21:00,43.0,32.0,29.72,SW,221,6.0,12.0,64,0.00,,,0.00,,2013-02-13 22:21:00,
2013-02-13 17:32:00,42.0,31.0,29.72,SSW,205,5.0,11.0,64,0.00,,,0.00,,2013-02-13 22:32:00,
2013-02-13 17:42:00,42.0,31.0,29.72,SSW,205,5.0,11.0,64,0.00,,,0.00,,2013-02-13 22:42:00,
2013-02-13 17:52:00,42.0,31.0,29.73,WSW,244,4.0,10.0,66,0.00,,,0.00,,2013-02-13 22:52:00,
2013-02-13 18:01:00,42.0,31.0,29.73,SW,214,3.0,8.0,66,0.00,,,0.00,,2013-02-13 23:01:00,
2013-02-13 18:11:00,41.0,31.0,29.73,SSW,202,4.0,7.0,68,0.00,,,0.00,,2013-02-13 23:11:00,
2013-02-13 18:22:00,41.0,31.0,29.73,SSW,202,4.0,7.0,68,0.00,,,0.00,,2013-02-13 23:22:00,
2013-02-13 18:32:00,40.0,31.0,29.74,SSW,199,3.0,6.0,70,0.00,,,0.00,,2013-02-13 23:32:00,
2013-02-13 18:42:00,40.0,31.0,29.74,SSW,199,3.0,6.0,70,0.00,,,0.00,,2013-02-13 23:42:00,
2013-02-13 18:52:00,40.0,31.0,29.74,South,188,4.0,5.0,71,0.00,,,0.00,,2013-02-13 23:52:00,
2013-02-13 19:02:00,39.0,31.0,29.75,SSW,192,2.0,4.0,72,0.00,,,0.00,,2013-02-14 00:02:00,
2013-02-13 19:11:00,39.0,31.0,29.75,SSW,192,2.0,4.0,72,0.00,,,0.00,,2013-02-14 00:11:00,
2013-02-13 19:22:00,39.0,31.0,29.75,SSW,192,4.0,5.0,73,0.00,,,0.00,,2013-02-14 00:22:00,
2013-02-13 19:32:00,38.0,30.0,29.75,SSW,201,2.0,5.0,74,0.00,,,0.00,,2013-02-14 00:32:00,
2013-02-13 19:42:00,38.0,30.0,29.75,SSW,201,2.0,5.0,74,0.00,,,0.00,,2013-02-14 00:42:00,
2013-02-13 19:52:00,38.0,30.0,29.75,SSW,209,3.0,5.0,74,0.00,,,0.00,,2013-02-14 00:52:00,
2013-02-13 20:01:00,38.0,31.0,29.76,SSW,202,3.0,4.0,75,0.00,,,0.00,,2013-02-14 01:01:00,
2013-02-13 20:11:00,38.0,31.0,29.76,SSW,202,3.0,4.0,75,0.00,,,0.00,,2013-02-14 01:11:00,
2013-02-13 20:21:00,38.0,31.0,29.76,SSW,211,2.0,4.0,75,0.00,,,0.00,,2013-02-14 01:21:00,
2013-02-13 20:32:00,38.0,31.0,29.76,SSW,210,3.0,5.0,76,0.00,,,0.00,,2013-02-14 01:32:00,
2013-02-13 20:41:00,38.0,31.0,29.76,SSW,210,3.0,5.0,76,0.00,,,0.00,,2013-02-14 01:41:00,
2013-02-13 20:52:00,37.0,30.0,29.76,SW,216,3.0,5.0,76,0.00,,,0.00,,2013-02-14 01:52:00,
2013-02-13 21:02:00,37.0,30.0,29.76,SW,220,3.0,5.0,77,0.00,,,0.00,,2013-02-14 02:02:00,
2013-02-13 21:11:00,37.0,31.0,29.76,SSW,205,4.0,6.0,78,0.00,,,0.00,,2013-02-14 02:11:00,
2013-02-13 21:21:00,37.0,31.0,29.76,SSW,205,4.0,6.0,78,0.00,,,0.00,,2013-02-14 02:21:00,
2013-02-13 21:32:00,37.0,31.0,29.76,SSW,211,4.0,6.0,78,0.00,,,0.00,,2013-02-14 02:32:00,
2013-02-13 21:42:00,37.0,31.0,29.76,SSW,211,4.0,6.0,78,0.00,,,0.00,,2013-02-14 02:42:00,
2013-02-13 21:52:00,37.0,31.0,29.76,SSW,211,4.0,6.0,78,0.00,,,0.00,,2013-02-14 02:52:00,
2013-02-13 22:02:00,37.0,31.0,29.77,SW,220,3.0,7.0,80,0.00,,,0.00,,2013-02-14 03:02:00,
2013-02-13 22:11:00,37.0,31.0,29.77,SSW,209,4.0,7.0,80,0.00,,,0.00,,2013-02-14 03:11:00,
2013-02-13 22:22:00,37.0,31.0,29.77,SSW,209,4.0,7.0,80,0.00,,,0.00,,2013-02-14 03:22:00,
2013-02-13 22:32:00,36.0,31.0,29.77,SW,221,3.0,6.0,82,0.00,,,0.00,,2013-02-14 03:32:00,
2013-02-13 22:42:00,36.0,31.0,29.77,SW,221,3.0,6.0,82,0.00,,,0.00,,2013-02-14 03:42:00,
2013-02-13 22:52:00,36.0,31.0,29.77,SSW,210,4.0,6.0,82,0.00,,,0.00,,2013-02-14 03:52:00,
2013-02-13 23:01:00,36.0,31.0,29.77,SSW,206,3.0,6.0,83,0.00,,,0.00,,2013-02-14 04:01:00,
2013-02-13 23:12:00,36.0,31.0,29.77,SSW,209,4.0,7.0,83,0.00,,,0.00,,2013-02-14 04:12:00,
2013-02-13 23:21:00,36.0,31.0,29.77,SSW,209,4.0,7.0,83,0.00,,,0.00,,2013-02-14 04:21:00,
2013-02-13 23:32:00,35.0,31.0,29.77,SSW,204,3.0,5.0,84,0.00,,,0.00,,2013-02-14 04:32:00,
2013-02-13 23:42:00,35.0,31.0,29.77,SSW,204,3.0,5.0,84,0.00,,,0.00,,2013-02-14 04:42:00,
2013-02-13 23:52:00,35.0,31.0,29.77,SW,215,3.0,4.0,84,0.00,,,0.00,,2013-02-14 04:52:00,